IZ8GMP-13 Weather Reports


time (UTC)temp
C
wind
direction
speed
KPH
gust
KPH
rain 1hr
cm
rain 24hr
cm
rain mn
cm
humidity
%
barometer
mb
20260906095722 28 0.0 0.0 0.00 0.00 0.00 70 1019.5
20260906093719 27 0.0 0.0 0.00 0.00 0.00 69 1019.4
20260906091715 28 0.0 0.0 0.00 0.00 0.00 69 1019.6
20260906085712 28 0.0 0.0 0.00 0.00 0.00 69 1019.5
20260906083708 28 0.0 0.0 0.00 0.00 0.00 65 1019.5
20260906081705 28 0.0 0.0 0.00 0.00 0.00 67 1019.4
20260906075701 28 0.0 0.0 0.00 0.00 0.00 66 1019.3
20260906073658 28 0.0 0.0 0.00 0.00 0.00 67 1019.3
20260906071654 28 0.0 0.0 0.00 0.00 0.00 65 1019.3
20260906065651 28 0.0 0.0 0.00 0.00 0.00 67 1019.1
20260906063647 28 0.0 0.0 0.00 0.00 0.00 67 1019.0
20260906061644 27 0.0 0.0 0.00 0.00 0.00 67 1018.9
20260906055641 27 0.0 0.0 0.00 0.00 0.00 67 1018.9
20260906053637 27 0.0 0.0 0.00 0.00 0.00 68 1018.8
20260906051634 27 0.0 0.0 0.00 0.00 0.00 71 1018.6
20260906045630 26 0.0 0.0 0.00 0.00 0.00 73 1018.5
20260906043627 26 0.0 0.0 0.00 0.00 0.00 72 1018.5
20260906041623 26 0.0 0.0 0.00 0.00 0.00 72 1018.4
20260906035620 26 0.0 0.0 0.00 0.00 0.00 71 1018.2
20260906033616 26 0.0 0.0 0.00 0.00 0.00 71 1018.2
20260906031613 26 0.0 0.0 0.00 0.00 0.00 72 1018.0
20260906025609 26 0.0 0.0 0.00 0.00 0.00 72 1018.1
20260906023606 26 0.0 0.0 0.00 0.00 0.00 71 1018.2
20260906021602 26 0.0 0.0 0.00 0.00 0.00 71 1018.3
20260906015559 26 0.0 0.0 0.00 0.00 0.00 70 1018.2
20260906013555 26 0.0 0.0 0.00 0.00 0.00 70 1018.2
20260906011552 27 0.0 0.0 0.00 0.00 0.00 68 1018.3
20260906005549 27 0.0 0.0 0.00 0.00 0.00 68 1018.2
20260906003545 27 0.0 0.0 0.00 0.00 0.00 68 1018.1
20260906001542 27 0.0 0.0 0.00 0.00 0.00 68 1018.3
20260905235538 27 0.0 0.0 0.00 0.00 0.00 67 1018.4
20260905233535 27 0.0 0.0 0.00 0.00 0.00 66 1018.5
20260905231531 27 0.0 0.0 0.00 0.00 0.00 66 1018.6
20260905225528 27 0.0 0.0 0.00 0.00 0.00 66 1018.7
20260905223525 27 0.0 0.0 0.00 0.00 0.00 65 1018.7
20260905215517 27 0.0 0.0 0.00 0.00 0.00 63 1018.7
20260905213514 27 0.0 0.0 0.00 0.00 0.00 63 1018.8
20260905211510 27 0.0 0.0 0.00 0.00 0.00 63 1018.7
20260905205507 27 0.0 0.0 0.00 0.00 0.00 62 1018.9
20260905203503 27 0.0 0.0 0.00 0.00 0.00 62 1018.9
20260905201500 27 0.0 0.0 0.00 0.00 0.00 62 1018.9
20260905195456 28 0.0 0.0 0.00 0.00 0.00 62 1018.8
20260905193453 28 0.0 0.0 0.00 0.00 0.00 61 1018.8
20260905191449 28 0.0 0.0 0.00 0.00 0.00 57 1018.7
20260905185446 27 0.0 0.0 0.00 0.00 0.00 59 1018.7
20260905183443 27 0.0 0.0 0.00 0.00 0.00 64 1018.4
20260905181439 27 0.0 0.0 0.00 0.00 0.00 66 1018.3
20260905175436 27 0.0 0.0 0.00 0.00 0.00 67 1018.1
20260905173432 28 0.0 0.0 0.00 0.00 0.00 67 1018.2
20260905171429 28 0.0 0.0 0.00 0.00 0.00 65 1017.9
20260905165425 28 0.0 0.0 0.00 0.00 0.00 64 1017.7
20260905163422 28 0.0 0.0 0.00 0.00 0.00 62 1017.8
20260905161418 28 0.0 0.0 0.00 0.00 0.00 58 1017.9
20260905155415 28 0.0 0.0 0.00 0.00 0.00 64 1017.7
20260905153411 28 0.0 0.0 0.00 0.00 0.00 65 1017.8
20260905151408 28 0.0 0.0 0.00 0.00 0.00 58 1017.8
20260905145404 30 0.0 0.0 0.00 0.00 0.00 49 1017.6
20260905143401 31 0.0 0.0 0.00 0.00 0.00 42 1017.8
20260905141357 31 0.0 0.0 0.00 0.00 0.00 44 1017.8
20260905135354 31 0.0 0.0 0.00 0.00 0.00 44 1018.0
20260905133350 32 0.0 0.0 0.00 0.00 0.00 42 1018.0
20260905131347 32 0.0 0.0 0.00 0.00 0.00 42 1018.1
20260905125344 32 0.0 0.0 0.00 0.00 0.00 40 1018.3
20260905123340 32 0.0 0.0 0.00 0.00 0.00 42 1018.4
20260905121337 31 0.0 0.0 0.00 0.00 0.00 41 1018.5
20260905115333 31 0.0 0.0 0.00 0.00 0.00 42 1018.6
20260905113330 31 0.0 0.0 0.00 0.00 0.00 41 1018.8
20260905111326 31 0.0 0.0 0.00 0.00 0.00 43 1018.8
20260905105323 31 0.0 0.0 0.00 0.00 0.00 44 1018.8
20260905101316 31 0.0 0.0 0.00 0.00 0.00 38 1018.8